Lexington Weather

Lexington, Massachusetts, USA

39°F
1/28/2023 8:46pm 
  • Lexington Conditions: Clear
  • Temperature: 38.8°F / 3.8°CColder 1.3°F than last hour.
  • Dew Point: 27.0°FIncreased 0.9°Fsince last hour.
  • Relative Humidity: 62%Increased 5.0% since last hour.
  • Wind: Calm, 10-min avg: Calm, gust: None
  • Barometer: 30.23 in Steady
  • Visibility: 10 miles
  • Rain Today: 0.00 in
  •   

Regional Weather Roundup
for Boston, MA

        
000
ASUS41 KBOX 250310
RWRBOX

REGIONAL WEATHER ROUNDUP
NATIONAL WEATHER SERVICE BOSTON/NORTON MA
1000 PM EST TUE JAN 24 2023

NOTE:  "FAIR" INDICATES FEW OR NO CLOUDS BELOW 12,000 FEET WITH NO 
SIGNIFICANT WEATHER AND/OR OBSTRUCTIONS TO VISIBILITY.

MAZALL-250400-
EASTERN MASSACHUSETTS
  
CITY           SKY/WX    TMP DP  RH WIND       PRES   REMARKS
BOSTON         CLOUDY    37  28  70 W12       30.19R WCI  29          
BEVERLY        CLEAR     31  27  85 W7        30.16R WCI  24          
LAWRENCE       CLEAR     35  27  72 W8        30.17R WCI  29          
BEDFORD        CLOUDY    35  28  75 W7        30.16R WCI  29          
NORWOOD        CLEAR     35  27  72 SW8       30.19R WCI  29          
MARSHFIELD     CLEAR     34  28  80 W8        30.18R WCI  27          
PLYMOUTH       CLEAR     34  26  72 W8        30.18R WCI  27          
TAUNTON          N/A    N/A N/A N/A MISG      30.20R                  
NEW BEDFORD    CLEAR     34  28  79 W6        30.21R WCI  29          
$$

MAZALL-250400-
CAPE COD AND THE ISLANDS
  
CITY           SKY/WX    TMP DP  RH WIND       PRES   REMARKS
FALMOUTH       CLEAR     34  27  75 W8        30.19R WCI  27          
HYANNIS        CLEAR     35  27  72 W13       30.18R WCI  26          
CHATHAM        CLEAR     36  26  67 VRB5      30.19R                  
PROVINCETOWN   CLEAR     37  30  75 W18G28    30.18R WCI  27          
NANTUCKET      CLEAR     37  26  64 W13       30.20R WCI  29          
MARTHAS VNYRD  CLEAR     38  27  64 W10       30.22R WCI  31          
$$
 
MAZALL-250400-
CENTRAL AND WESTERN MASSACHUSETTS
  
CITY           SKY/WX    TMP DP  RH WIND       PRES   REMARKS
WORCESTER      CLOUDY    32  26  78 W7        30.15R WCI  26          
FITCHBURG      CLOUDY    34  26  72 W5        30.17R WCI  30          
ORANGE         CLOUDY    33  27  78 S6        30.18R WCI  28          
SPRINGFIELD    MOCLDY    35  25  66 W13G23    30.19R WCI  27          
WESTFIELD      CLOUDY    35  26  69 SW7       30.22R WCI  29          
NORTH ADAMS    CLOUDY    34  25  69 W17       30.18R WCI  23          
PITTSFIELD     CLOUDY    31  24  75 W8        30.17R WCI  23          
$$
 
RIZALL-250400-
RHODE ISLAND
  
CITY           SKY/WX    TMP DP  RH WIND       PRES   REMARKS
PROVIDENCE     CLEAR     32  26  78 W7        30.23R WCI  26          
NEWPORT        CLEAR     34  25  69 W5        30.21R WCI  30          
BLOCK ISLAND   PTCLDY    38  24  57 W14       30.25R WCI  30          
SMITHFIELD     CLEAR     30  27  88 SW3       30.20R                  
WESTERLY       PTCLDY    37  25  61 VRB5      30.24R                  
$$
 
CTZALL-250400-
CONNECTICUT
  
CITY           SKY/WX    TMP DP  RH WIND       PRES   REMARKS
BRADLEY INTL   MOCLDY    34  26  72 W8        30.23R WCI  27          
HARTFORD       CLOUDY    36  25  64 SW3       30.25R                  
BRIDGEPORT     CLOUDY    39  23  52 W8        30.27R                  
DANBURY        PTCLDY    37  21  52 W6        30.25R                  
GROTON         PTCLDY    39  26  59 W13       30.25R WCI  31          
NEW HAVEN      CLOUDY    41  26  55 VRB6      30.26R                  
CHESTER        FAIR      34  27  75 SW6       30.24R WCI  29          
MERIDEN        PTCLDY    36  24  62 CALM      30.25R                  
WILLIMANTIC    MOCLDY    29  27  92 W5        30.23R WCI  24          
OXFORD         PTCLDY    34  24  67 W5        30.23R WCI  30          
$$

MEZ002-015-021-024-NHZ003-005-008-011-012-014-VTZ005-008-250400-
NORTHERN NEW ENGLAND
  
CITY           SKY/WX    TMP DP  RH WIND       PRES   REMARKS
PORTLAND ME    MOCLDY    35  27  72 W6        30.13R WCI  30          
BANGOR ME      CLOUDY    34  25  69 NW5       30.04R WCI  30          
CONCORD NH     CLOUDY    34  27  75 W3        30.14R                  
MANCHESTER NH  MOCLDY    35  28  75 SW6       30.14R WCI  30          
NASHUA NH      CLOUDY    35  32  88 W6        30.17R WCI  30          
PORTSMOUTH NH  MOCLDY    34  27  77 W10       30.13R WCI  26          
JAFFREY NH     CLOUDY    32  27  81 CALM      30.13R                  
KEENE NH       CLOUDY    35  26  69 W8        30.16R WCI  29          
BURLINGTON VT  CLOUDY    31  22  69 N10       30.18R WCI  22          
MT. WASHINGTON SNOW       9   9 100 NW62G72     N/A  VSB 0   WCI -21  
$$

NYZ052-076-250400-
EASTERN NEW YORK
  
CITY           SKY/WX    TMP DP  RH WIND       PRES   REMARKS
ALBANY         FLURRIES  35  25  66 W8        30.24R WCI  29          
NEW YORK CITY  MOCLDY    40  23  50 NW13G22   30.29R                  
$$
 
ANZALL-250400-
MARINE OBSERVATIONS
  
STATION/POSITION TIME  TEMP    WIND        PRES    VSBY  WAVE
                       AIR SEA DIR/SP/G                  HT/PER
                 (UTC) (F)     (DEG/KT/KT) (MB)    (MI)  (FT/S)
BOSTON BUOY      0210      42                N/A           3/ 4
BUZZARDS BAY     0200   39     270/ 19/ 22 1023.1R
NANTUCKET SOUND  0250   40 42  270/ 19/ 23 1022.4R         2/ 3
MASS BAY-STELLWA 0104   37 42  270/ 19/ 21 1019.2R  1 7/8  3/ 4
ISLE OF SHOALS   0200   36     270/ 24/ 29 1018.6R
S OF BLOCK IS    0226      44                N/A           6/ 7
$$

......................KEY.........................
  SKY/WX - SKY CONDITION/PRESENT WEATHER
  TMP    - TEMPERATURE IN FAHRENHEIT
  DWPT   - DEWPOINT IN FAHRENHEIT
  RH     - RELATIVE HUMIDITY IN PERCENT
  WIND   - DIRECTION AND SPEED IN MPH
  PRES   - MEAN SEA LEVEL PRESSURE IN INCHES OF HG
  WCI    - WIND CHILL INDEX
  VSB    - VISIBILITY IN MILES
  HX     - HEAT INDEX
  TC     - TEMPERATURE IN CELSIUS
  VRB    - VARIABLE WIND DIRECTION
  N/A    - NOT AVAILABLE
  
      

Other recent Regional Weather Roundups

Sat Jan 28, 8:10pm EST

Sat Jan 28, 7:10pm EST

Sat Jan 28, 6:10pm EST

Sat Jan 28, 5:10pm EST

Sat Jan 28, 4:10pm EST

Sat Jan 28, 3:10pm EST

Sat Jan 28, 2:10pm EST

Sat Jan 28, 1:10pm EST

Sat Jan 28, 12:10pm EST

Sat Jan 28, 11:10am EST

Sat Jan 28, 10:10am EST

Sat Jan 28, 9:10am EST

Sat Jan 28, 8:10am EST

Sat Jan 28, 7:10am EST

Sat Jan 28, 6:10am EST

Sat Jan 28, 5:10am EST

Sat Jan 28, 4:10am EST

Sat Jan 28, 3:10am EST

Sat Jan 28, 2:10am EST

Sat Jan 28, 1:10am EST

Sat Jan 28, 12:10am EST

Fri Jan 27, 11:10pm EST

Fri Jan 27, 10:10pm EST

Fri Jan 27, 9:10pm EST

Fri Jan 27, 8:10pm EST

Fri Jan 27, 7:10pm EST

Fri Jan 27, 6:10pm EST

Fri Jan 27, 5:10pm EST

Fri Jan 27, 4:10pm EST

Fri Jan 27, 3:10pm EST

Fri Jan 27, 2:10pm EST

Fri Jan 27, 1:10pm EST

Fri Jan 27, 12:10pm EST

Fri Jan 27, 11:10am EST

Fri Jan 27, 10:10am EST

Fri Jan 27, 9:10am EST

Fri Jan 27, 8:10am EST

Fri Jan 27, 7:10am EST

Fri Jan 27, 6:10am EST

Fri Jan 27, 5:10am EST

Fri Jan 27, 4:10am EST

Fri Jan 27, 3:10am EST

Fri Jan 27, 2:10am EST

Fri Jan 27, 1:10am EST

Fri Jan 27, 12:10am EST

Thu Jan 26, 11:10pm EST

Thu Jan 26, 10:10pm EST

Thu Jan 26, 9:10pm EST

Thu Jan 26, 8:10pm EST

Thu Jan 26, 7:10pm EST

Thu Jan 26, 6:10pm EST

Thu Jan 26, 5:10pm EST

Thu Jan 26, 4:10pm EST

Thu Jan 26, 3:10pm EST

Thu Jan 26, 2:10pm EST

Thu Jan 26, 1:10pm EST

Thu Jan 26, 12:10pm EST

Thu Jan 26, 11:10am EST

Thu Jan 26, 10:10am EST

Thu Jan 26, 9:10am EST

Thu Jan 26, 8:10am EST

Thu Jan 26, 7:10am EST

Thu Jan 26, 6:10am EST

Thu Jan 26, 5:10am EST

Thu Jan 26, 4:10am EST

Thu Jan 26, 3:10am EST

Thu Jan 26, 2:10am EST

Thu Jan 26, 1:10am EST

Thu Jan 26, 12:10am EST

Wed Jan 25, 11:10pm EST

Wed Jan 25, 10:10pm EST

Wed Jan 25, 9:10pm EST

Wed Jan 25, 8:10pm EST

Wed Jan 25, 7:10pm EST

Wed Jan 25, 6:10pm EST

Wed Jan 25, 5:10pm EST

Wed Jan 25, 4:10pm EST

Wed Jan 25, 3:10pm EST

Wed Jan 25, 2:10pm EST

Wed Jan 25, 1:10pm EST

Wed Jan 25, 12:10pm EST

Wed Jan 25, 11:10am EST

Wed Jan 25, 10:10am EST

Wed Jan 25, 9:10am EST

Wed Jan 25, 8:10am EST

Wed Jan 25, 7:10am EST

Wed Jan 25, 6:10am EST

Wed Jan 25, 5:10am EST

Wed Jan 25, 4:10am EST

Wed Jan 25, 3:10am EST

Wed Jan 25, 2:10am EST

Wed Jan 25, 1:10am EST

Wed Jan 25, 12:10am EST

Tue Jan 24, 11:10pm EST

Tue Jan 24, 9:10pm EST

Tue Jan 24, 8:10pm EST

Tue Jan 24, 7:10pm EST

Tue Jan 24, 6:10pm EST

Tue Jan 24, 5:10pm EST

Tue Jan 24, 4:10pm EST

Tue Jan 24, 3:10pm EST

Tue Jan 24, 2:10pm EST

Tue Jan 24, 1:10pm EST

Tue Jan 24, 12:10pm EST

Tue Jan 24, 11:10am EST

Tue Jan 24, 10:10am EST

Tue Jan 24, 9:10am EST

Tue Jan 24, 8:10am EST

Tue Jan 24, 7:10am EST

Tue Jan 24, 6:10am EST

Tue Jan 24, 5:10am EST

Tue Jan 24, 4:10am EST

Tue Jan 24, 3:10am EST

Tue Jan 24, 2:10am EST

Tue Jan 24, 1:10am EST

Tue Jan 24, 12:10am EST

Mon Jan 23, 11:10pm EST

Mon Jan 23, 10:10pm EST

Mon Jan 23, 9:10pm EST

Mon Jan 23, 8:10pm EST

Mon Jan 23, 7:10pm EST

Mon Jan 23, 6:10pm EST

Mon Jan 23, 5:10pm EST

Mon Jan 23, 4:10pm EST

Mon Jan 23, 3:10pm EST

Mon Jan 23, 2:10pm EST

Mon Jan 23, 1:10pm EST

Mon Jan 23, 12:10pm EST

Mon Jan 23, 11:10am EST

Mon Jan 23, 10:10am EST

Mon Jan 23, 9:10am EST

Mon Jan 23, 8:10am EST

Mon Jan 23, 7:10am EST

Mon Jan 23, 6:10am EST

Mon Jan 23, 5:10am EST

Mon Jan 23, 4:10am EST

Mon Jan 23, 3:10am EST

Mon Jan 23, 2:10am EST

Mon Jan 23, 1:10am EST

Mon Jan 23, 12:10am EST

Sun Jan 22, 11:10pm EST

Sun Jan 22, 10:10pm EST

Sun Jan 22, 9:10pm EST

Sun Jan 22, 8:10pm EST

Sun Jan 22, 7:10pm EST

Sun Jan 22, 6:10pm EST

Sun Jan 22, 5:10pm EST

Sun Jan 22, 4:10pm EST

Sun Jan 22, 3:10pm EST

Sun Jan 22, 2:10pm EST

Sun Jan 22, 1:10pm EST

Sun Jan 22, 12:10pm EST

Sun Jan 22, 11:10am EST

Sun Jan 22, 10:10am EST

Sun Jan 22, 9:10am EST

Sun Jan 22, 8:10am EST

Sun Jan 22, 7:10am EST

Sun Jan 22, 6:10am EST

Sun Jan 22, 5:10am EST

Sun Jan 22, 4:10am EST

Sun Jan 22, 3:10am EST

Sun Jan 22, 2:10am EST

Sun Jan 22, 1:10am EST

Sun Jan 22, 12:10am EST

Sat Jan 21, 11:10pm EST

Sat Jan 21, 10:10pm EST

Sat Jan 21, 9:10pm EST